Regional Weather Roundup
Issued by NWS Charleston, SC

Current Version | Previous Version | Graphics & Text | Print | Product List | Glossary On
Versions: 1 2 3 4 5 6 7 8 9 10 11 12 13 14 15 16 17 18 19 20 21 22 23 24 25 26 27 28 29 30 31 32 33 34 35 36 37 38 39 40 41 42 43 44 45 46 47 48 49 50
000
ASUS42 KCHS 290527
RWRCHS

REGIONAL WEATHER ROUNDUP
NATIONAL WEATHER SERVICE CHARLESTON SC
100 AM EDT WED JUL 29 2015

NOTE: "FAIR" INDICATES FEW OR NO CLOUDS BELOW 12,000 FEET WITH NO
SIGNIFICANT WEATHER AND/OR OBSTRUCTIONS TO VISIBILITY.

NOT ALL STATIONS ARE QUALITY CONTROLLED BY THE NATIONAL
WEATHER SERVICE. USE DATA WITH CAUTION...ESPECIALLY
DEWPOINT OBSERVATIONS.

SCZ027-030-031-034>040-042>050-290600-
...SOUTHEAST SOUTH CAROLINA...

CITY           SKY/WX    TMP DP  RH WIND       PRES   REMARKS
N CHARLESTON   MOCLDY    78  73  84 N3        29.97S
WATERFRONT PRK   N/A     81  76  85 E7        29.94S
MOUNT PLEASANT LGT RAIN  75  73  94 N3        29.97F
JOHNS ISLAND   FAIR      79  75  89 CALM      29.97S
PINOPOLIS      NOT AVBL
MONCKS CORNER  FAIR      77  72  83 CALM      29.98S
SUMMERVILLE    FAIR      75  75 100 CALM      29.99S
BEAUFORT MCAS  PTCLDY    81  76  84 CALM      29.97F
BEAUFORT ARPT  FAIR      77  75  94 CALM      29.96S
HILTON HEAD IS CLOUDY    79  75  89 CALM      29.97F
WALTERBORO     PTCLDY    79  73  83 CALM      29.99S
ALLENDALE      FAIR      77  73  88 CALM      29.97S

...SOUTHERN MIDLANDS AND PEE DEE...

CITY           SKY/WX    TMP DP  RH WIND       PRES   REMARKS
GEORGETOWN     NOT AVBL
KINGSTREE      NOT AVBL
ORANGEBURG     MOCLDY    80  71  74 S5        29.99S
BARNWELL       FAIR      79  73  83 CALM      29.99S
AIKEN          FAIR      77  70  78 SE3       30.03S
MANNING        FAIR      73  70  88 CALM      29.98F
COLUMBIA       MOCLDY    80  75  84 SE6       29.99R
SUMTER         PTCLDY    78  68  70 S2        29.97S
FLORENCE       PTCLDY    78  71  79 SE3       29.99S
MYRTLE BEACH   CLEAR     81  70  69 E5        30.00F
N MYRTLE BEACH CLEAR     80  72  76 E8        29.98F

$$

GAZ063-065-086>088-099>101-113>116-118-119-134>141-150-290600-
...SOUTHEAST GEORGIA...

CITY           SKY/WX    TMP DP  RH WIND       PRES   REMARKS
SAVANNAH ARPT  CLEAR     80  75  84 CALM      29.97F
HUNTER AAF     PTCLDY    79  78  95 CALM      29.94F
FORT STEWART   PTCLDY    77  74  92 W2        29.95S
STATESBORO     CLEAR     77  77 100 CALM      29.97F
SYLVANIA       CLEAR     78  77  96 CALM      29.99F
CLAXTON        FAIR      77  73  88 CALM      29.97F

...CSRA...CENTRAL AND FAR SOUTHEAST GEORGIA...

CITY           SKY/WX    TMP DP  RH WIND       PRES   REMARKS
THOMSON        CLOUDY    79  79 100 CALM      30.03S
AUGUSTA-BUSH   CLEAR     79  76  90 S3        29.97S
AUGUSTA-DANIEL CLEAR     82  74  76 S7        29.99S
SWAINSBORO     FAIR      81  77  89 S3        30.00R
VIDALIA        PTCLDY    77  73  88 CALM      29.99S
EASTMAN        FAIR      82  75  81 SE5       30.00S
HAZLEHURST     FAIR      80  72  76 CALM      29.97S
ALMA           PTCLDY    78  72  81 CALM      29.97S
WAYCROSS       PTCLDY    80  76  88 CALM      29.96F
JESUP          FAIR      79  77  94 CALM      29.97S
BAXLEY         FAIR      79  72  78 CALM      29.97S
BRUNSWICK      MOCLDY    75  75 100 CALM      29.96S
SAINT SIMONS   MOCLDY    80  76  87 N6        29.95F

$$

SCZ027-028-034-036>038-045-046-048>050-GAZ119-141-290600-
...LAKE AND SUPPLEMENTAL COASTAL OBSERVATIONS...

STATION/POSITION TIME  TEMP    WIND        PRES    WAVE   SWELL
                       AIR SEA DIR/SP/G            HT/PER HT/PER/DIR
                 (UTC) (F)     (DEG/KT/KT) (MB)    (FT/S) (FT/S/D)
UPR LAKE MARION  NOT AVBL
WINYAH BAY       0400   80      90/  7     1014.0
LAKE MURRAY      0400   79      80/  6/  8 1014.2F
ACE BASIN NERRS  NOT AVBL
FORT PULASKI     0500   81 86  100/  4/  4 1014.9F
SAPELO ISLAND    0500   78      20/  2     1014.0F

$$

ANZ835-935-AMZ111-154-330-350-352-354-370-450-454-472-290600-
...C-MAN AND BUOY OBSERVATIONS...

STATION/POSITION TIME  TEMP    WIND        PRES    WAVE   SWELL
                       AIR SEA DIR/SP/G            HT/PER HT/PER/DIR
                 (UTC) (F)     (DEG/KT/KT) (MB)    (FT/S) (FT/S/D)
BUOY 41004       0450   83 84   80/  8/  8 1014.2F   3/ 6   3/ 6
BUOY 41008       0450   82 82   60/ 10/ 12 1014.2F   2/ 6   2/150/ 6
FOLLY BEACH CMAN 0500   81      70/ 10/ 11 1014.8F
CAPERS NEARSHORE 0408   82      80/ 12/ 14 1015.0F
FRIPP NEARSHORE  0400   83     110/ 10/ 12 1014.5F


STATION/POSITION TIME  TEMP    WIND        PRES    WAVE   SWELL
                       AIR SEA DIR/SP/G            HT/PER HT/PER/DIR
                 (UTC) (F)     (DEG/KT/KT) (MB)    (FT/S) (FT/S/D)
5E ST. MARYS GA  0421      82                N/A     2/ 5
FRYING PAN BUOY  0450   83 84   70/ 10/ 12 1015.4F   4/ 7   3/150/ 7
BUOY 41025       NOT AVBL
CAPE LOOKOUT NC  0500   81      90/ 12/ 13 1015.3F
BUOY 41002       0450   77 81  250/ 16/ 21 1015.3R   6/ 7   2/310/ 9
BUOY 41010       0420   82 84  250/ 12/ 14 1014.8F
ST AUGUSTINE FL  0500   78 82  290/  5/  7 1014.8F


$$


USA.gov is the U.S. government's official web portal to all federal, state and local government web resources and services.